Location: Tyler Bend Campground
(35.9875°N, 92.7606°W)
Time: 18:55:10
(UTC-05:00)

CZ-2C R/B - Visible Passes

Search period start: 24 April 2014 00:00
Search period end: 04 May 2014 00:00
Orbit: 670 x 786 km, 98.1° (Epoch: 23 April)

Date Brightness Start Highest point End Pass type
(mag) Time Alt. Az. Time Alt. Az. Time Alt. Az.
24 Apr 2.3 20:24:24 10° SSE 20:29:00 77° ENE 20:33:47 10° N visible
25 Apr 4.2 21:15:54 10° SSW 21:19:55 29° W 21:24:04 10° NW visible
26 Apr 2.3 20:27:42 10° SSE 20:32:20 84° ENE 20:37:10 10° N visible
27 Apr 4.3 21:19:21 10° SSW 21:23:17 27° W 21:27:21 10° NW visible
28 Apr 2.4 20:31:00 10° SSE 20:35:41 89° WSW 20:40:32 10° NNW visible
29 Apr 4.5 21:22:49 10° SSW 21:26:39 25° W 21:30:36 10° NW visible
30 Apr 2.5 20:34:19 10° S 20:39:01 82° WSW 20:43:54 10° NNW visible
01 May 4.6 21:26:17 10° SSW 21:30:01 23° W 21:33:51 10° NW visible
02 May 2.6 20:37:38 10° S 20:42:21 75° WSW 20:47:16 10° NNW visible
03 May 4.7 21:29:47 10° SW 21:33:23 21° W 21:37:06 10° NW visible
